BEIDOU-3 M3 (C27)

Last updated on Oct. 29, 2020, 5:53 a.m. UTC

1 43107U 18003A   20302.21785294 -.00000113  00000-0  00000-0 0  9998
2 43107  55.3773  13.0605 0003265  48.4688 309.8326  1.86232536 19025
UTC
Height (km)
Latitude
Longitude
Inclination
Orbital Period
UTC large
Height (km)
Speed (km/s)
/
Latitude / Longitude
Inclination (degrees)
Orbital Period (minutes)
Azimuth
Elevation
Range (km)
Doppler Factor
iOS Compass Heading
iOS Angle

Next 30 passes for location: Hong Kong

Rise time Rise Azimuth (degrees) Set time Set Azimuth (degrees) Duration Max altitude (degrees)

No matching passes for this satellites